Regional Weather Roundup
Issued by NWS

Home | Current Version | Previous Version | Text Only | Print | Product List | Glossary Off
Versions: 1 2 3 4 5 6 7 8 9 10 11 12 13 14 15 16 17 18 19 20 21 22 23 24 25 26 27 28 29 30 31 32 33 34 35 36 37 38 39 40 41 42 43 44 45 46 47 48 49 50

015
ASUS43 KIND 141109
RWRIN

WEATHER ROUNDUP FOR INDIANA
NATIONAL WEATHER SERVICE INDIANAPOLIS IN
600 AM EST SUN FEB 14 2016

NOTE: "FAIR" INDICATES FEW OR NO CLOUDS BELOW 12,000 FEET WITH NO
SIGNIFICANT WEATHER AND/OR OBSTRUCTIONS TO VISIBILITY.

* - STATION DOES NOT REPORT WEATHER SUCH AS PRECIPITATION OR FOG.

+ - STATION NOT QUALITY CONTROLLED BY THE NATIONAL WEATHER SERVICE.
    USE DATA WITH CAUTION...ESPECIALLY DEWPOINT AND RELATIVE
    HUMIDITY OBSERVATIONS.

INZ001>003-010>013-019-020-141200-
NORTHWEST INDIANA

CITY           SKY/WX    TMP DP  RH WIND       PRES   REMARKS
GARY /AIRPORT/ MOCLDY    14   3  62 SE6       30.43F WCI   5
KNOX *+        CLOUDY     5   0  78 SE5       30.43S WCI  -4
LA PORTE +     MOCLDY     2  -2  85 CALM      30.43S
MICHIGAN CITY+ PTCLDY     9   1  72 S3        30.44S
MONTICELLO +   CLOUDY    13   1  58 SE3       30.42F
RENSSELAER +   CLOUDY    14   0  52 SE12      30.42S WCI   0
VALPARAISO     PTCLDY    10   3  73 SE7       30.42S WCI  -1

$$

LMZ046-743>745-141200-
SOUTHERN LAKE MICHIGAN

STATION/POSITION TIME  TEMP    WIND        PRES    WAVE
                       AIR SEA DIR/SP/G            HT
                 (UTC) (F)     (DEG/KT/KT) (MB)    (FT)
BURNS HARBOR     1000   11     170/  6/ 12 1030.8F
MICHIGAN CITY    1000    9     130/  7/  9   N/A

$$

INZ004-005-014>016-021>024-141200-
NORTH CENTRAL INDIANA

CITY           SKY/WX    TMP DP  RH WIND       PRES   REMARKS
GOSHEN         MOCLDY     0  -4  83 SE3       30.43R
LOGANSPORT +   CLOUDY    12   1  62 SE10      30.44F WCI  -1
PERU/GRISSOM   CLOUDY    12   4  72 SE10      30.41S WCI  -2
ROCHESTER +    CLOUDY     5  -4  66 CALM      30.44S
SOUTH BEND     CLOUDY     1  -2  87 S3        30.43S
WARSAW +       CLOUDY     1  -2  85 CALM      30.43R

$$

INZ006>009-017-018-025>027-141200-
NORTHEAST INDIANA

CITY           SKY/WX    TMP DP  RH WIND       PRES   REMARKS
ANGOLA *+      PTCLDY     7   0  72 E5        30.41S WCI  -2
AUBURN +       CLOUDY     9   3  78 CALM      30.43S
FORT WAYNE     CLOUDY     5   0  79 SE3       30.45R
HUNTINGTON +   CLOUDY     3  -3  76 CALM      30.44R

$$

INZ028-029-035-036-043>045-051>053-141200-
WEST CENTRAL INDIANA

CITY           SKY/WX    TMP DP  RH WIND       PRES   REMARKS
CRAWFORDSVL +  CLOUDY    13   0  55 SE9       30.41F WCI   1
GREENCASTLE +  CLOUDY    16   0  48 SE9       30.41F WCI   4
LAFAYETTE      CLOUDY    13   2  61 E9        30.42F WCI   1
TERRE HAUTE    LGT SNOW  16   7  67 SE9       30.42S WCI   4

$$

INZ030>032-037>040-046>048-054>057-064-065-141200-
CENTRAL INDIANA

CITY           SKY/WX    TMP DP  RH WIND       PRES   REMARKS
FRANKFORT +    CLOUDY    14  -3  47 SE10      30.43S WCI   1
GREENWOOD *+   CLOUDY    14   5  67 E7        30.43F WCI   4
INDIANAPOLIS   CLOUDY    14   1  56 E12       30.42R WCI   0
-EAGLE CREEK   CLOUDY    14   2  58 SE9       30.42S WCI   2
KOKOMO *+      CLOUDY    10   3  72 SE9       30.43F WCI  -2
MARION +       CLOUDY     9  -3  59 SE3       30.45S
MT COMFORT *+  CLOUDY    12   3  67 SE8       30.44R WCI   1
SHELBYVILLE    CLOUDY    14   3  61 E10       30.44S WCI   1
ZIONSVILLE +   CLOUDY    12   2  64 SE8       30.43R WCI   0

$$

INZ033-034-041-042-049-050-058-059-141200-
EAST CENTRAL INDIANA

CITY           SKY/WX    TMP DP  RH WIND       PRES   REMARKS
MUNCIE         CLOUDY    11   1  64 SE7       30.44R WCI   0

$$

INZ060-061-067>069-081>083-085>088-141200-
SOUTHWEST INDIANA

CITY           SKY/WX    TMP DP  RH WIND       PRES   REMARKS
EVANSVILLE     CLOUDY    24   6  46 E7        30.42R WCI  16
HUNTINGBURG *+ CLOUDY    19   7  58 E10       30.42R WCI   8
WASHINGTON +   LGT SNOW  19   9  66 E9        30.43R WCI   8

$$

INZ062-063-066-070>080-084-089>092-141200-
SOUTH CENTRAL AND SOUTHEAST INDIANA

CITY           SKY/WX    TMP DP  RH WIND       PRES   REMARKS
BLOOMINGTON    CLOUDY    17   3  54 SE9       30.40S WCI   6
MADISON *+     CLOUDY    18   3  53 E6        30.45S WCI   9
NORTH VERNON + CLOUDY    16   3  57 CALM      30.44S
SEYMOUR +      CLOUDY    19   3  49 E8        30.45R WCI   9

$$





USA.gov is the U.S. government's official web portal to all federal, state and local government web resources and services.